Погода в Новом Рычане

Россия / Астраханская область     46°22′28″N   48°21′49″E
темп.,
°C
ветер,
м/с
пор.,
м/с
влажн.,
%
обл.,
%
осадки,
мм/ч
давл.,
гПа
погр.,
м
17 апреля, сб
сб1701:00+16зсз36475 0.0 101884
04:00+14сз335035 0.0 101930
07:00+14з1155100 0.0 101915
10:00+20юз333668 0.0 1019572
13:00+24зюз442320 0.0 10192283
16:00+23юз6527100 0.0 10191495
19:00+20юз4633100 0.0 1019353
22:00+16зюз353999 0.0 1020130
18 апреля, вс
вс1801:00+16ссз3758100 0.0 1020287
04:00+14сз1271100 0.4 1020127
07:00+13ссв3486100 2.4 1020304
10:00+15ссв2175100 2.4 1020548
13:00+18ссз115697 0.0 10191375
16:00+18ссз2257100 0.1 10181071
19:00+17с116080 0.1 1018487
22:00+14сз01686 0.1 101810
19 апреля, пн
пн1901:00+13з3377100 0.0 101847
04:00+14сз2370100 0.0 101759
07:00+14с1162100 0.0 101747
10:00+16ююв1151100 0.0 1018370
13:00+20зюз2240100 0.0 10171477
16:00+22зюз1240100 0.0 10161725
19:00+19ююз4550100 0.0 1016435
22:00+16юз3567100 0.1 1017293
20 апреля, вт
вт2001:00+15ююз2378100 0.1 1016137
04:00+13в2282100 0.1 101626
07:00+14вюв3770100 0.0 1015246
10:00+19вюв7934100 0.0 1016943
13:00+21вюв101230100 0.0 10141184
16:00+21вюв10134299 0.0 10141044
19:00+17вюв91750100 0.0 1013672
22:00+17вюв112050100 0.0 1014731
21 апреля, ср
ср2101:00+15вюв91754100 0.0 1015682
04:00+14вюв71359100 0.0 1017632
07:00+13вюв71263100 0.1 1019597
10:00+13вюв7962100 1.3 1020757
13:00+11вюв71172100 2.6 1021566
16:00+12вюв51073100 3.6 1022629
19:00+12в5970100 0.0 1022474
22:00+12св4963100 0.0 1021290